Regional Weather Roundup
Issued by NWS

Home | Current Version | Previous Version | Text Only | Print | Product List | Glossary Off
Versions: 1 2 3 4 5 6 7 8 9 10 11 12 13 14 15 16 17 18 19 20 21 22 23 24 25 26 27

000
ASUS45 KBOU 221307
RWRCO

WEATHER ROUNDUP FOR COLORADO
NATIONAL WEATHER SERVICE DENVER/BOULDER CO
600 AM MST WED FEB 22 2017

NOTE: "FAIR" INDICATES FEW OR NO CLOUDS BELOW 12000 FEET WITH NO
SIGNIFICANT WEATHER AND/OR OBSTRUCTIONS TO VISIBILITY.

COZ001>005-013-030-031-221400-
...NORTHWEST COLORADO...

CITY           SKY/WX    TMP DP  RH WIND       PRES   REMARKS
CRAIG          CLOUDY    32  26  78 W3        29.98F
HAYDEN         CLOUDY    28  23  80 SW7       29.97S WCI  21
MEEKER         CLOUDY    42  30  62 W10       29.94S
MOUNT WERNER   NOT AVBL
STEAMBOAT SPGS CLOUDY    28  26  91 SW3       29.96S
WALDEN         NOT AVBL
$$

COZ006>008-011-221400-
...WEST CENTRAL VALLEYS...

CITY           SKY/WX    TMP DP  RH WIND       PRES   REMARKS
GRAND JUNCTION FAIR      38  32  79 NE3       29.96S
MONTROSE       FAIR      49  25  39 CALM      30.02F
EAGLE          CLOUDY    42  25  50 W9        29.97S
RIFLE          FAIR      44  31  60 VRB5      29.95R
DELTA          FAIR      51  31  47 W7        30.00S
NUCLA          FAIR      45  32  61 E7        30.08F
$$

COZ017>023-064>068-221400-
...SOUTHWEST COLORADO...

CITY           SKY/WX    TMP DP  RH WIND       PRES   REMARKS
DURANGO        FAIR      34  30  85 E6        30.13S WCI  29
CORTEZ         MOCLDY    36  35  96 VRB3      30.09F
PAGOSA SPRINGS FAIR      32  32  99 CALM      30.16S
TELLURIDE      FAIR      39  13  33 SW14      30.12F
WOLF CREEK PAS SNOW      23  23 100 SW25G37   30.20F VSB 1/2 WCI   7
$$

COZ009-010-012-014-032>034-037-058>063-221400-
...CENTRAL COLORADO...

CITY           SKY/WX    TMP DP  RH WIND       PRES   REMARKS
ASPEN          FAIR      39  17  41 CALM      29.98F
BUENA VISTA    FAIR      38  11  33 SW10      30.00F
COPPER MTN     LGT SNOW  27  10  50 MISG      30.05S
BERTHOUD PASS  FAIR      19   9  63 W33G61    29.98F WCI   0
COTTONWOOD PAS FAIR      36   9  32 W5G26     30.04F
GUNNISON       FAIR      38  20  48 W12       30.04F
KREMMLING      CLOUDY    45  23  42 SW15G28   29.94S
LEADVILLE      FAIR      27   9  46 N6        30.01S WCI  20
MONARCH PASS   FAIR      21  12  68 W38G51    30.19F WCI   1
SALIDA         FAIR      39  22  50 SW12G17   30.10S
SUNLIGHT       NOT AVBL
WILKERSON PASS FAIR      25  10  54 SW13G26   30.06S WCI  13
$$

COZ069>075-221400-
...SAN LUIS VALLEY/SANGRE DE CRISTO MOUNTAINS...

CITY           SKY/WX    TMP DP  RH WIND       PRES   REMARKS
ALAMOSA        FAIR      35  29  78 SE13      30.07F WCI  26
LA VETA PASS   FAIR      32  27  80 N14G24    30.14F WCI  22
SAGUACHE       FAIR      27  21  80 CALM      30.07S
$$

COZ035-036-038>040-221400-
...NORTHERN COLORADO FRONT RANGE...

CITY           SKY/WX    TMP DP  RH WIND       PRES   REMARKS
DENVER INTL AP FAIR      36  23  59 NE10      29.87R
DMNS CITY PARK   N/A     42  16  34 N5        29.85S
AURORA         PTCLDY    47  17  29 S14       29.85F
FRONT RANGE AP NOT AVBL
ERIE MUNI ARPT FAIR      33  18  53 SE7       29.85R WCI  27
BOULDER MUN AP FAIR      46  18  31 S6        29.83F
CENTENNIAL     FAIR      47  17  30 SW17      29.86F
BROOMFIELD     PTCLDY    46  14  27 CALM      29.85F
FORT COLLINS   FAIR      39  26  59 NE13      29.85F
LONGMONT       FAIR      55  17  22 SW8       29.85S
$$

COZ041-046-047-076>085-087-088-221400-
...PIKES PEAK/PALMER DIVIDE AND SOUTHERN FOOTHILLS...

CITY           SKY/WX    TMP DP  RH WIND       PRES   REMARKS
COLO. SPRINGS  FAIR      46  18  32 W10       29.95F
A. F. ACADEMY  FAIR      49   7  18 SW21G33   29.92F
SCHRIEVER AFB  FAIR      46  19  33 SW21      29.92F
ELLICOTT       FAIR     N/A N/A N/A W12       29.90F
FALCON         FAIR      41  18  39 SW13      29.94F
FORT CARSON    FAIR      49  20  33 SW20      29.92F
LIMON          FAIR      50  14  23 W10       29.87R
MONUMENT HILL  FAIR      43  14  31 SW15G22   29.93F
TRINIDAD       FAIR      52  24  33 W21       29.94S
$$

COZ042>045-048>051-090-091-221400-
...NORTHEAST COLORADO...

CITY           SKY/WX    TMP DP  RH WIND       PRES   REMARKS
GREELEY ARPT   FAIR      38  24  57 NW16      29.86F
AKRON          FAIR      34  27  75 N8        29.88S WCI  27
BURLINGTON     FAIR      45  22  40 N12       29.88R
WRAY           NOT AVBL
STERLING       FAIR      37  28  70 CALM      29.85S
HOLYOKE        FAIR      34  27  75 W8        29.86S WCI  27
FORT MORGAN    FAIR      41  22  47 N25G35    29.85S
$$

COZ086-089-092>099-221400-
...SOUTHEAST COLORADO...

CITY           SKY/WX    TMP DP  RH WIND       PRES   REMARKS
PUEBLO         FAIR      45  23  42 NW6       29.88F
LA JUNTA       FAIR      54  25  32 W17       29.85F
LAMAR          FAIR      37  18  46 SW3       29.83F
SPRINGFIELD      N/A     41  21  44 W9        29.87F
$$




USA.gov is the U.S. government's official web portal to all federal, state and local government web resources and services.